This is the latest recevied weather packets stored in our database for station/object KQ4JKJ. If no packets are shown the sender has not sent any weather packets the latest 10 day(s).
| Time | Temp. | Humidity | Pressure | Rain* | Wind** | Luminosity | Snow |
|---|---|---|---|---|---|---|---|
| 1777908726 | 25° C | 64% | 1012.1 hPa | 0 mm | - | 429 W/m² | - |
| 1777908423 | 25° C | 65% | 1012 hPa | 0 mm | - | 299 W/m² | - |
| 1777908119 | 25.56° C | 63% | 1012.1 hPa | 0 mm | - | 282 W/m² | - |
| 1777907816 | 24.44° C | 65% | 1011.9 hPa | 0 mm | - | 481 W/m² | - |
| 1777907516 | 25° C | 64% | 1011.9 hPa | 0 mm | - | 261 W/m² | - |
| 1777907213 | 25.56° C | 65% | 1011.9 hPa | 0 mm | - | 378 W/m² | - |
| 1777906910 | 25° C | 64% | 1012.1 hPa | 0 mm | - | 601 W/m² | - |
| 1777906607 | 25° C | 63% | 1012.1 hPa | 0 mm | - | 763 W/m² | - |
| 1777906302 | 26.11° C | 63% | 1012.1 hPa | 0 mm | - | 682 W/m² | - |
| 1777906000 | 25° C | 64% | 1012.1 hPa | 0 mm | - | 628 W/m² | - |
| 1777905696 | 25° C | 65% | 1012 hPa | 0 mm | - | 296 W/m² | - |
| 1777905393 | 26.11° C | 63% | 1011.9 hPa | 0 mm | - | 288 W/m² | - |
| 1777905091 | 26.67° C | 60% | 1011.9 hPa | 0 mm | - | 626 W/m² | - |
| 1777904788 | 25.56° C | 63% | 1011.7 hPa | 0 mm | - | 668 W/m² | - |
| 1777904485 | 25.56° C | 63% | 1011.6 hPa | 0 mm | - | 655 W/m² | - |
| 1777904181 | 26.11° C | 62% | 1011.5 hPa | 0 mm | - | 425 W/m² | - |
| 1777903879 | 26.11° C | 63% | 1011.6 hPa | 0 mm | - | 671 W/m² | - |
| 1777903576 | 25.56° C | 65% | 1011.4 hPa | 0 mm | - | 614 W/m² | - |
| 1777903271 | 25.56° C | 65% | 1011.5 hPa | 0 mm | - | 540 W/m² | - |
| 1777902968 | 25.56° C | 64% | 1011.5 hPa | 0 mm | - | 510 W/m² | - |
| 1777902665 | 25.56° C | 65% | 1011.4 hPa | 0 mm | - | 504 W/m² | - |
| 1777902362 | 25° C | 67% | 1011.3 hPa | 0 mm | - | 484 W/m² | - |
| 1777902059 | 24.44° C | 68% | 1011.3 hPa | 0 mm | - | 457 W/m² | - |
| 1777901757 | 24.44° C | 69% | 1011.2 hPa | 0 mm | - | 254 W/m² | - |
| 1777901454 | 23.89° C | 70% | 1011.2 hPa | 0 mm | - | 420 W/m² | - |
* Rain latest hour (hover to see other rain measurements)
** Current wind speed in m/s (hover to see current wind gust speed)